| time (UTC) | temp C | wind direction | speed KPH | gust KPH | rain 1hr cm | rain 24hr cm | rain mn cm | humidity % | barometer mb |
| 20260901070254 | 15 | 340 | 1.6 | 1.6 | 0.00 | 0.00 | 0.00 | 82 | 1009.7 |
| 20260901065810 | 15 | 271 | 0.0 | 0.0 | 0.00 | 0.00 | 0.00 | 82 | 1009.7 |
| 20260901065226 | 15 | 271 | 0.0 | 0.0 | 0.00 | 0.00 | 0.00 | 82 | 1009.8 |
| 20260901064732 | 15 | 271 | 0.0 | 0.0 | 0.00 | 0.00 | 0.00 | 81 | 1009.7 |
| 20260901064239 | 15 | 271 | 0.0 | 0.0 | 0.00 | 0.00 | 0.00 | 81 | 1009.7 |
| 20260901063726 | 16 | 271 | 0.0 | 0.0 | 0.00 | 0.00 | 0.00 | 80 | 1009.7 |
| 20260901063233 | 16 | 271 | 0.0 | 0.0 | 0.00 | 0.00 | 0.00 | 80 | 1009.7 |
| 20260901062724 | 16 | 271 | 0.0 | 0.0 | 0.00 | 0.00 | 0.00 | 79 | 1009.8 |
| 20260901062253 | 16 | 271 | 0.0 | 0.0 | 0.00 | 0.00 | 0.00 | 79 | 1009.8 |
| 20260901061727 | 16 | 271 | 0.0 | 0.0 | 0.00 | 0.00 | 0.00 | 78 | 1010.0 |
| 20260901061234 | 16 | 271 | 0.0 | 0.0 | 0.00 | 0.00 | 0.00 | 75 | 1010.0 |
| 20260901060721 | 16 | 271 | 0.0 | 0.0 | 0.00 | 0.00 | 0.00 | 75 | 1010.0 |
| 20260901060228 | 16 | 271 | 0.0 | 0.0 | 0.00 | 0.00 | 0.00 | 75 | 1009.9 |
| 20260901055755 | 17 | 271 | 0.0 | 0.0 | 0.00 | 0.00 | 0.00 | 75 | 1009.9 |
| 20260901055723 | 17 | 271 | 0.0 | 0.0 | 0.00 | 0.00 | 0.00 | 75 | 1009.9 |
| 20260901055231 | 17 | 271 | 0.0 | 0.0 | 0.00 | 0.00 | 0.00 | 75 | 1009.8 |
| 20260901054757 | 17 | 271 | 0.0 | 0.0 | 0.00 | 0.00 | 0.00 | 75 | 1009.9 |
| 20260901054725 | 17 | 271 | 0.0 | 0.0 | 0.00 | 0.00 | 0.00 | 75 | 1009.9 |
| 20260901054252 | 17 | 271 | 0.0 | 0.0 | 0.00 | 0.00 | 0.00 | 75 | 1009.9 |
| 20260901054220 | 17 | 271 | 0.0 | 0.0 | 0.00 | 0.00 | 0.00 | 75 | 1009.9 |
| 20260901053727 | 17 | 271 | 0.0 | 0.0 | 0.00 | 0.00 | 0.00 | 75 | 1010.0 |
| 20260901053234 | 17 | 271 | 0.0 | 3.2 | 0.00 | 0.00 | 0.00 | 75 | 1009.9 |
| 20260901052801 | 17 | 271 | 1.6 | 3.2 | 0.00 | 0.00 | 0.00 | 74 | 1009.9 |
| 20260901052729 | 17 | 271 | 1.6 | 3.2 | 0.00 | 0.00 | 0.00 | 74 | 1009.9 |
| 20260901052237 | 17 | 304 | 0.0 | 0.0 | 0.00 | 0.00 | 0.00 | 74 | 1010.0 |
| 20260901051803 | 17 | 304 | 0.0 | 3.2 | 0.00 | 0.00 | 0.00 | 74 | 1010.1 |
| 20260901051239 | 17 | 304 | 0.0 | 3.2 | 0.00 | 0.00 | 0.00 | 74 | 1010.0 |
| 20260901050806 | 17 | 304 | 0.0 | 1.6 | 0.00 | 0.00 | 0.00 | 74 | 1010.0 |
| 20260901050225 | 17 | 304 | 0.0 | 0.0 | 0.00 | 0.00 | 0.00 | 74 | 1009.9 |
| 20260901045732 | 18 | 304 | 0.0 | 1.6 | 0.00 | 0.00 | 0.00 | 73 | 1009.9 |
| 20260901045240 | 18 | 304 | 0.0 | 3.2 | 0.00 | 0.00 | 0.00 | 73 | 1010.0 |
| 20260901044727 | 18 | 309 | 0.0 | 3.2 | 0.00 | 0.00 | 0.00 | 72 | 1010.0 |
| 20260901044253 | 18 | 321 | 0.0 | 3.2 | 0.00 | 0.00 | 0.00 | 72 | 1010.0 |
| 20260901043728 | 18 | 321 | 0.0 | 3.2 | 0.00 | 0.00 | 0.00 | 72 | 1010.0 |
| 20260901043235 | 18 | 329 | 0.0 | 3.2 | 0.00 | 0.00 | 0.00 | 72 | 1010.0 |
| 20260901042723 | 18 | 315 | 1.6 | 3.2 | 0.00 | 0.00 | 0.00 | 71 | 1010.0 |
| 20260901042230 | 18 | 310 | 0.0 | 4.8 | 0.00 | 0.00 | 0.00 | 71 | 1010.0 |
| 20260901041755 | 18 | 296 | 1.6 | 4.8 | 0.00 | 0.00 | 0.00 | 71 | 1010.0 |
| 20260901041311 | 18 | 302 | 0.0 | 3.2 | 0.00 | 0.00 | 0.00 | 71 | 1010.0 |
| 20260901040726 | 18 | 290 | 0.0 | 3.2 | 0.00 | 0.00 | 0.00 | 71 | 1009.9 |
| 20260901040233 | 18 | 290 | 0.0 | 3.2 | 0.00 | 0.00 | 0.00 | 71 | 1009.9 |
| 20260901035724 | 18 | 305 | 0.0 | 3.2 | 0.00 | 0.00 | 0.00 | 71 | 1009.9 |
| 20260901035253 | 18 | 310 | 0.0 | 3.2 | 0.00 | 0.00 | 0.00 | 70 | 1009.9 |
| 20260901034727 | 18 | 310 | 0.0 | 3.2 | 0.00 | 0.00 | 0.00 | 70 | 1010.0 |
| 20260901034255 | 18 | 302 | 0.0 | 3.2 | 0.00 | 0.00 | 0.00 | 70 | 1009.9 |
| 20260901033730 | 18 | 283 | 0.0 | 4.8 | 0.00 | 0.00 | 0.00 | 69 | 1009.8 |
| 20260901033237 | 18 | 307 | 0.0 | 4.8 | 0.00 | 0.00 | 0.00 | 69 | 1009.8 |
| 20260901032805 | 18 | 299 | 0.0 | 3.2 | 0.00 | 0.00 | 0.00 | 68 | 1009.6 |
| 20260901032221 | 19 | 300 | 0.0 | 3.2 | 0.00 | 0.00 | 0.00 | 68 | 1009.7 |
| 20260901031727 | 19 | 310 | 0.0 | 3.2 | 0.00 | 0.00 | 0.00 | 67 | 1009.7 |
| 20260901031234 | 19 | 327 | 1.6 | 3.2 | 0.00 | 0.00 | 0.00 | 67 | 1009.7 |
| 20260901030721 | 19 | 281 | 1.6 | 3.2 | 0.00 | 0.00 | 0.00 | 67 | 1009.5 |
| 20260901030228 | 20 | 297 | 0.0 | 4.8 | 0.00 | 0.00 | 0.00 | 66 | 1009.5 |
| 20260901025735 | 20 | 297 | 0.0 | 4.8 | 0.00 | 0.00 | 0.00 | 66 | 1009.6 |
| 20260901025228 | 20 | 302 | 0.0 | 3.2 | 0.00 | 0.00 | 0.00 | 65 | 1009.5 |
| 20260901024734 | 20 | 296 | 0.0 | 1.6 | 0.00 | 0.00 | 0.00 | 65 | 1009.6 |
| 20260901024221 | 20 | 308 | 0.0 | 0.0 | 0.00 | 0.00 | 0.00 | 65 | 1009.7 |
| 20260901023728 | 20 | 310 | 0.0 | 0.0 | 0.00 | 0.00 | 0.00 | 64 | 1009.7 |
| 20260901023235 | 20 | 310 | 0.0 | 0.0 | 0.00 | 0.00 | 0.00 | 64 | 1009.7 |
| 20260901022722 | 20 | 265 | 0.0 | 1.6 | 0.00 | 0.00 | 0.00 | 64 | 1009.7 |
| 20260901022230 | 20 | 265 | 0.0 | 1.6 | 0.00 | 0.00 | 0.00 | 63 | 1009.7 |
| 20260901021757 | 20 | 292 | 0.0 | 0.0 | 0.00 | 0.00 | 0.00 | 62 | 1009.7 |
| 20260901021232 | 20 | 292 | 0.0 | 3.2 | 0.00 | 0.00 | 0.00 | 62 | 1009.7 |
| 20260901020739 | 20 | 264 | 0.0 | 3.2 | 0.00 | 0.00 | 0.00 | 61 | 1009.7 |
| 20260901020226 | 21 | 261 | 0.0 | 3.2 | 0.00 | 0.00 | 0.00 | 61 | 1009.7 |
| 20260901015737 | 21 | 291 | 0.0 | 6.4 | 0.00 | 0.00 | 0.00 | 60 | 1009.7 |
| 20260901015225 | 21 | 336 | 3.2 | 6.4 | 0.00 | 0.00 | 0.00 | 59 | 1009.7 |
| 20260901014731 | 21 | 243 | 1.6 | 4.8 | 0.00 | 0.00 | 0.00 | 59 | 1009.7 |
| 20260901014237 | 21 | 301 | 1.6 | 8.0 | 0.00 | 0.00 | 0.00 | 58 | 1009.7 |
| 20260901013724 | 22 | 259 | 1.6 | 8.0 | 0.00 | 0.00 | 0.00 | 58 | 1009.7 |
| 20260901013309 | 22 | 319 | 0.0 | 3.2 | 0.00 | 0.00 | 0.00 | 58 | 1009.7 |
| 20260901013237 | 22 | 319 | 0.0 | 3.2 | 0.00 | 0.00 | 0.00 | 58 | 1009.7 |
| 20260901012805 | 22 | 311 | 0.0 | 4.8 | 0.00 | 0.00 | 0.00 | 57 | 1009.8 |
| 20260901012221 | 22 | 300 | 1.6 | 4.8 | 0.00 | 0.00 | 0.00 | 56 | 1009.7 |
| 20260901011727 | 22 | 278 | 1.6 | 4.8 | 0.00 | 0.00 | 0.00 | 56 | 1009.8 |
| 20260901011234 | 22 | 302 | 1.6 | 4.8 | 0.00 | 0.00 | 0.00 | 56 | 1009.8 |
| 20260901010721 | 23 | 350 | 3.2 | 11.3 | 0.00 | 0.00 | 0.00 | 55 | 1009.9 |
| 20260901010227 | 23 | 252 | 3.2 | 11.3 | 0.00 | 0.00 | 0.00 | 54 | 1009.9 |
| 20260901005738 | 23 | 338 | 3.2 | 8.0 | 0.00 | 0.00 | 0.00 | 53 | 1009.8 |
| 20260901005227 | 23 | 275 | 0.0 | 4.8 | 0.00 | 0.00 | 0.00 | 53 | 1009.8 |
| 20260901004732 | 23 | 306 | 1.6 | 8.0 | 0.00 | 0.00 | 0.00 | 53 | 1009.8 |
| 20260901004239 | 23 | 30 | 3.2 | 11.3 | 0.00 | 0.00 | 0.00 | 53 | 1009.7 |
| 20260901003806 | 23 | 342 | 3.2 | 9.7 | 0.00 | 0.00 | 0.00 | 52 | 1009.8 |
| 20260901003734 | 23 | 342 | 3.2 | 9.7 | 0.00 | 0.00 | 0.00 | 52 | 1009.8 |
| 20260901003221 | 23 | 331 | 4.8 | 11.3 | 0.00 | 0.00 | 0.00 | 52 | 1009.9 |
| 20260901002728 | 24 | 285 | 4.8 | 11.3 | 0.00 | 0.00 | 0.00 | 51 | 1009.9 |
| 20260901002256 | 24 | 244 | 3.2 | 12.9 | 0.00 | 0.00 | 0.00 | 51 | 1010.0 |
| 20260901002224 | 24 | 244 | 3.2 | 12.9 | 0.00 | 0.00 | 0.00 | 51 | 1010.0 |
| 20260901001810 | 24 | 342 | 6.4 | 12.9 | 0.00 | 0.00 | 0.00 | 50 | 1010.0 |
| 20260901001225 | 24 | 326 | 3.2 | 12.9 | 0.00 | 0.00 | 0.00 | 51 | 1010.1 |
| 20260901000732 | 24 | 292 | 3.2 | 12.9 | 0.00 | 0.00 | 0.00 | 50 | 1010.1 |
| 20260901000241 | 24 | 284 | 6.4 | 12.9 | 0.00 | 0.00 | 0.00 | 50 | 1010.2 |
| 20260831235726 | 25 | 296 | 4.8 | 11.3 | 0.00 | 0.00 | 0.00 | 49 | 1010.3 |
| 20260831235238 | 25 | 247 | 3.2 | 12.9 | 0.00 | 0.00 | 0.00 | 50 | 1010.3 |
| 20260831234724 | 25 | 324 | 4.8 | 12.9 | 0.00 | 0.00 | 0.00 | 49 | 1010.3 |
| 20260831234231 | 25 | 333 | 4.8 | 8.0 | 0.00 | 0.00 | 0.00 | 49 | 1010.5 |
| 20260831233738 | 25 | 321 | 4.8 | 8.0 | 0.00 | 0.00 | 0.00 | 49 | 1010.5 |
| 20260831233225 | 25 | 28 | 3.2 | 8.0 | 0.00 | 0.00 | 0.00 | 50 | 1010.5 |
| 20260831232732 | 25 | 15 | 3.2 | 11.3 | 0.00 | 0.00 | 0.00 | 50 | 1010.5 |
| 20260831232240 | 25 | 45 | 1.6 | 14.5 | 0.00 | 0.00 | 0.00 | 51 | 1010.5 |
| 20260831231726 | 25 | 9 | 4.8 | 11.3 | 0.00 | 0.00 | 0.00 | 50 | 1010.5 |
| 20260831231233 | 25 | 28 | 3.2 | 8.0 | 0.00 | 0.00 | 0.00 | 51 | 1010.5 |
| 20260831230724 | 24 | 343 | 3.2 | 12.9 | 0.00 | 0.00 | 0.00 | 51 | 1010.6 |
| 20260831230231 | 24 | 339 | 4.8 | 12.9 | 0.00 | 0.00 | 0.00 | 51 | 1010.7 |
| 20260831225758 | 25 | 277 | 3.2 | 12.9 | 0.00 | 0.00 | 0.00 | 50 | 1010.7 |
| 20260831225726 | 25 | 277 | 3.2 | 12.9 | 0.00 | 0.00 | 0.00 | 50 | 1010.7 |
| 20260831225255 | 25 | 297 | 4.8 | 12.9 | 0.00 | 0.00 | 0.00 | 49 | 1010.7 |
| 20260831224729 | 25 | 52 | 3.2 | 16.1 | 0.00 | 0.00 | 0.00 | 49 | 1010.7 |
| 20260831224236 | 25 | 325 | 4.8 | 16.1 | 0.00 | 0.00 | 0.00 | 49 | 1010.8 |
| 20260831223723 | 25 | 292 | 1.6 | 6.4 | 0.00 | 0.00 | 0.00 | 49 | 1010.9 |
| 20260831223230 | 25 | 340 | 1.6 | 11.3 | 0.00 | 0.00 | 0.00 | 51 | 1010.9 |
| 20260831222737 | 24 | 355 | 6.4 | 16.1 | 0.00 | 0.00 | 0.00 | 50 | 1010.9 |
| 20260831222225 | 25 | 9 | 3.2 | 9.7 | 0.00 | 0.00 | 0.00 | 50 | 1011.0 |
| 20260831221731 | 25 | 340 | 1.6 | 8.0 | 0.00 | 0.00 | 0.00 | 50 | 1011.1 |
| 20260831221258 | 24 | 33 | 1.6 | 11.3 | 0.00 | 0.00 | 0.00 | 51 | 1011.1 |
| 20260831221226 | 24 | 33 | 1.6 | 11.3 | 0.00 | 0.00 | 0.00 | 51 | 1011.1 |
| 20260831220753 | 24 | 264 | 4.8 | 16.1 | 0.00 | 0.00 | 0.00 | 51 | 1011.2 |
| 20260831220310 | 24 | 327 | 6.4 | 16.1 | 0.00 | 0.00 | 0.00 | 51 | 1011.3 |
| 20260831220238 | 24 | 327 | 6.4 | 16.1 | 0.00 | 0.00 | 0.00 | 51 | 1011.3 |
| 20260831215805 | 24 | 360 | 3.2 | 17.7 | 0.00 | 0.00 | 0.00 | 52 | 1011.4 |
| 20260831215733 | 24 | 360 | 3.2 | 17.7 | 0.00 | 0.00 | 0.00 | 52 | 1011.4 |
| 20260831215221 | 23 | 47 | 3.2 | 17.7 | 0.00 | 0.00 | 0.00 | 52 | 1011.3 |
| 20260831214728 | 23 | 304 | 3.2 | 8.0 | 0.00 | 0.00 | 0.00 | 52 | 1011.3 |
| 20260831214239 | 23 | 306 | 3.2 | 17.7 | 0.00 | 0.00 | 0.00 | 53 | 1011.5 |
| 20260831213726 | 23 | 339 | 6.4 | 17.7 | 0.00 | 0.00 | 0.00 | 52 | 1011.6 |
| 20260831213253 | 23 | 89 | 3.2 | 14.5 | 0.00 | 0.00 | 0.00 | 52 | 1011.6 |
| 20260831212809 | 23 | 290 | 4.8 | 12.9 | 0.00 | 0.00 | 0.00 | 52 | 1011.8 |
| 20260831212225 | 23 | 360 | 3.2 | 9.7 | 0.00 | 0.00 | 0.00 | 52 | 1011.9 |
| 20260831211811 | 23 | 302 | 3.2 | 12.9 | 0.00 | 0.00 | 0.00 | 53 | 1012.0 |
| 20260831211226 | 23 | 318 | 4.8 | 12.9 | 0.00 | 0.00 | 0.00 | 54 | 1011.9 |
| 20260831210733 | 23 | 331 | 4.8 | 11.3 | 0.00 | 0.00 | 0.00 | 54 | 1012.0 |
| 20260831210220 | 23 | 41 | 6.4 | 14.5 | 0.00 | 0.00 | 0.00 | 55 | 1012.1 |
| 20260831205727 | 23 | 215 | 3.2 | 14.5 | 0.00 | 0.00 | 0.00 | 55 | 1012.1 |
| 20260831205235 | 22 | 270 | 6.4 | 12.9 | 0.00 | 0.00 | 0.00 | 55 | 1012.1 |
| 20260831204721 | 22 | 325 | 4.8 | 16.1 | 0.00 | 0.00 | 0.00 | 55 | 1012.1 |
| 20260831204228 | 22 | 24 | 4.8 | 16.1 | 0.00 | 0.00 | 0.00 | 55 | 1012.2 |
| 20260831203739 | 23 | 40 | 3.2 | 12.9 | 0.00 | 0.00 | 0.00 | 56 | 1012.2 |
| 20260831203226 | 22 | 355 | 4.8 | 12.9 | 0.00 | 0.00 | 0.00 | 56 | 1012.3 |
| 20260831202754 | 22 | 31 | 3.2 | 14.5 | 0.00 | 0.00 | 0.00 | 57 | 1012.3 |
| 20260831202230 | 22 | 339 | 8.0 | 14.5 | 0.00 | 0.00 | 0.00 | 57 | 1012.2 |
| 20260831201736 | 22 | 281 | 4.8 | 12.9 | 0.00 | 0.00 | 0.00 | 57 | 1012.4 |
| 20260831201303 | 22 | 26 | 3.2 | 16.1 | 0.00 | 0.00 | 0.00 | 57 | 1012.5 |
| 20260831200738 | 22 | 300 | 4.8 | 16.1 | 0.00 | 0.00 | 0.00 | 57 | 1012.6 |
| 20260831200225 | 22 | 303 | 3.2 | 8.0 | 0.00 | 0.00 | 0.00 | 58 | 1012.7 |
| 20260831195732 | 22 | 323 | 4.8 | 16.1 | 0.00 | 0.00 | 0.00 | 57 | 1012.7 |
| 20260831195239 | 22 | 307 | 4.8 | 16.1 | 0.00 | 0.00 | 0.00 | 58 | 1012.8 |
| 20260831194725 | 21 | 23 | 6.4 | 16.1 | 0.00 | 0.00 | 0.00 | 57 | 1012.8 |
| 20260831194232 | 21 | 246 | 3.2 | 11.3 | 0.00 | 0.00 | 0.00 | 58 | 1012.8 |
| 20260831193723 | 21 | 229 | 3.2 | 12.9 | 0.00 | 0.00 | 0.00 | 58 | 1012.8 |
| 20260831193230 | 21 | 240 | 4.8 | 12.9 | 0.00 | 0.00 | 0.00 | 57 | 1012.8 |
| 20260831192732 | 22 | 265 | 4.8 | 12.9 | 0.00 | 0.00 | 0.00 | 57 | 1012.9 |
| 20260831192240 | 21 | 76 | 3.2 | 12.9 | 0.00 | 0.00 | 0.00 | 59 | 1013.0 |
| 20260831191726 | 21 | 250 | 4.8 | 12.9 | 0.00 | 0.00 | 0.00 | 58 | 1013.0 |
| 20260831191233 | 21 | 257 | 4.8 | 12.9 | 0.00 | 0.00 | 0.00 | 60 | 1013.1 |
| 20260831190720 | 21 | 315 | 1.6 | 6.4 | 0.00 | 0.00 | 0.00 | 60 | 1013.2 |
| 20260831190227 | 20 | 333 | 3.2 | 14.5 | 0.00 | 0.00 | 0.00 | 61 | 1013.4 |
| 20260831185734 | 20 | 9 | 1.6 | 14.5 | 0.00 | 0.00 | 0.00 | 61 | 1013.5 |
| 20260831185226 | 20 | 303 | 4.8 | 12.9 | 0.00 | 0.00 | 0.00 | 59 | 1013.4 |
| 20260831184731 | 21 | 311 | 4.8 | 12.9 | 0.00 | 0.00 | 0.00 | 59 | 1013.5 |
| 20260831184259 | 20 | 306 | 3.2 | 11.3 | 0.00 | 0.00 | 0.00 | 61 | 1013.4 |
| 20260831183734 | 20 | 58 | 1.6 | 8.0 | 0.00 | 0.00 | 0.00 | 62 | 1013.5 |
| 20260831183221 | 20 | 9 | 4.8 | 12.9 | 0.00 | 0.00 | 0.00 | 63 | 1013.6 |
| 20260831182809 | 20 | 326 | 4.8 | 11.3 | 0.00 | 0.00 | 0.00 | 63 | 1013.7 |
| 20260831182245 | 20 | 324 | 4.8 | 12.9 | 0.00 | 0.00 | 0.00 | 63 | 1013.9 |
| 20260831181726 | 19 | 21 | 6.4 | 12.9 | 0.00 | 0.00 | 0.00 | 64 | 1013.9 |
| 20260831181233 | 20 | 327 | 4.8 | 9.7 | 0.00 | 0.00 | 0.00 | 63 | 1013.8 |
| 20260831180720 | 19 | 298 | 3.2 | 14.5 | 0.00 | 0.00 | 0.00 | 64 | 1013.8 |
| 20260831180307 | 19 | 281 | 6.4 | 14.5 | 0.00 | 0.00 | 0.00 | 64 | 1014.1 |
| 20260831175722 | 19 | 348 | 1.6 | 11.3 | 0.00 | 0.00 | 0.00 | 66 | 1014.0 |
| 20260831175310 | 18 | 305 | 4.8 | 14.5 | 0.00 | 0.00 | 0.00 | 66 | 1014.1 |
| 20260831174724 | 18 | 313 | 4.8 | 14.5 | 0.00 | 0.00 | 0.00 | 66 | 1014.1 |
| 20260831174231 | 18 | 296 | 1.6 | 16.1 | 0.00 | 0.00 | 0.00 | 68 | 1013.9 |
| 20260831173722 | 18 | 322 | 3.2 | 16.1 | 0.00 | 0.00 | 0.00 | 67 | 1014.0 |
| 20260831173229 | 18 | 252 | 1.6 | 4.8 | 0.00 | 0.00 | 0.00 | 68 | 1014.1 |
| 20260831172736 | 18 | 30 | 3.2 | 8.0 | 0.00 | 0.00 | 0.00 | 69 | 1014.1 |
| 20260831172224 | 18 | 288 | 3.2 | 8.0 | 0.00 | 0.00 | 0.00 | 69 | 1014.1 |
| 20260831171730 | 18 | 23 | 1.6 | 6.4 | 0.00 | 0.00 | 0.00 | 70 | 1014.2 |
| 20260831171237 | 18 | 306 | 3.2 | 6.4 | 0.00 | 0.00 | 0.00 | 68 | 1014.3 |
| 20260831170804 | 18 | 68 | 1.6 | 4.8 | 0.00 | 0.00 | 0.00 | 68 | 1014.4 |
| 20260831170732 | 18 | 68 | 1.6 | 4.8 | 0.00 | 0.00 | 0.00 | 68 | 1014.4 |
| 20260831170239 | 18 | 329 | 1.6 | 4.8 | 0.00 | 0.00 | 0.00 | 67 | 1014.3 |
| 20260831165806 | 18 | 113 | 1.6 | 4.8 | 0.00 | 0.00 | 0.00 | 69 | 1014.4 |
| 20260831165735 | 18 | 113 | 1.6 | 4.8 | 0.00 | 0.00 | 0.00 | 69 | 1014.4 |
| 20260831165258 | 17 | 80 | 0.0 | 4.8 | 0.00 | 0.00 | 0.00 | 69 | 1014.2 |
| 20260831164732 | 17 | 112 | 1.6 | 6.4 | 0.00 | 0.00 | 0.00 | 70 | 1014.3 |
| 20260831164239 | 17 | 46 | 3.2 | 6.4 | 0.00 | 0.00 | 0.00 | 70 | 1014.5 |
| 20260831163726 | 17 | 33 | 1.6 | 6.4 | 0.00 | 0.00 | 0.00 | 71 | 1014.5 |
| 20260831163253 | 17 | 111 | 1.6 | 4.8 | 0.00 | 0.00 | 0.00 | 71 | 1014.5 |
| 20260831162732 | 17 | 34 | 3.2 | 4.8 | 0.00 | 0.00 | 0.00 | 71 | 1014.5 |
| 20260831162235 | 16 | 342 | 1.6 | 4.8 | 0.00 | 0.00 | 0.00 | 72 | 1014.7 |
| 20260831161721 | 16 | 42 | 0.0 | 4.8 | 0.00 | 0.00 | 0.00 | 75 | 1014.7 |
| 20260831161228 | 16 | 51 | 0.0 | 4.8 | 0.00 | 0.00 | 0.00 | 75 | 1014.9 |
| 20260831160736 | 16 | 63 | 1.6 | 4.8 | 0.00 | 0.00 | 0.00 | 76 | 1014.9 |
| 20260831160222 | 15 | 80 | 1.6 | 4.8 | 0.00 | 0.00 | 0.00 | 77 | 1014.9 |
| 20260831155729 | 15 | 35 | 1.6 | 4.8 | 0.00 | 0.00 | 0.00 | 76 | 1014.9 |
| 20260831155237 | 15 | 45 | 1.6 | 4.8 | 0.00 | 0.00 | 0.00 | 77 | 1014.9 |
| 20260831154723 | 15 | 81 | 1.6 | 6.4 | 0.00 | 0.00 | 0.00 | 78 | 1014.8 |
| 20260831154311 | 15 | 323 | 1.6 | 4.8 | 0.00 | 0.00 | 0.00 | 77 | 1014.9 |
| 20260831153726 | 15 | 59 | 1.6 | 3.2 | 0.00 | 0.00 | 0.00 | 78 | 1014.8 |
| 20260831153237 | 14 | 74 | 0.0 | 4.8 | 0.00 | 0.00 | 0.00 | 82 | 1014.9 |
| 20260831152724 | 14 | 89 | 1.6 | 3.2 | 0.00 | 0.00 | 0.00 | 82 | 1015.1 |
| 20260831152232 | 13 | 59 | 0.0 | 1.6 | 0.00 | 0.00 | 0.00 | 84 | 1015.0 |
| 20260831151738 | 13 | 34 | 0.0 | 0.0 | 0.00 | 0.00 | 0.00 | 87 | 1015.0 |
| 20260831151225 | 12 | 34 | 0.0 | 0.0 | 0.00 | 0.00 | 0.00 | 89 | 1015.1 |
| 20260831150732 | 12 | 34 | 0.0 | 0.0 | 0.00 | 0.00 | 0.00 | 91 | 1015.1 |
| 20260831150239 | 11 | 34 | 0.0 | 0.0 | 0.00 | 0.00 | 0.00 | 90 | 1015.1 |
| 20260831145726 | 11 | 34 | 0.0 | 0.0 | 0.00 | 0.00 | 0.00 | 90 | 1015.1 |
| 20260831145234 | 11 | 34 | 0.0 | 0.0 | 0.00 | 0.00 | 0.00 | 91 | 1015.0 |
| 20260831144724 | 11 | 34 | 0.0 | 0.0 | 0.00 | 0.00 | 0.00 | 92 | 1014.9 |
| 20260831144231 | 10 | 34 | 0.0 | 0.0 | 0.00 | 0.00 | 0.00 | 93 | 1014.9 |
| 20260831143738 | 10 | 34 | 0.0 | 0.0 | 0.00 | 0.00 | 0.00 | 93 | 1014.9 |
| 20260831143305 | 10 | 34 | 0.0 | 0.0 | 0.00 | 0.00 | 0.00 | 93 | 1014.9 |
| 20260831143233 | 10 | 34 | 0.0 | 0.0 | 0.00 | 0.00 | 0.00 | 93 | 1014.9 |
| 20260831142721 | 10 | 34 | 0.0 | 0.0 | 0.00 | 0.00 | 0.00 | 93 | 1015.0 |
| 20260831142309 | 10 | 34 | 0.0 | 0.0 | 0.00 | 0.00 | 0.00 | 93 | 1015.0 |
| 20260831141722 | 10 | 349 | 0.0 | 0.0 | 0.00 | 0.00 | 0.00 | 93 | 1014.9 |
| 20260831141229 | 10 | 349 | 0.0 | 0.0 | 0.00 | 0.00 | 0.00 | 93 | 1015.1 |
| 20260831140736 | 10 | 349 | 0.0 | 0.0 | 0.00 | 0.00 | 0.00 | 94 | 1015.1 |
| 20260831140223 | 9 | 349 | 0.0 | 0.0 | 0.00 | 0.00 | 0.00 | 94 | 1015.0 |
| 20260831135730 | 9 | 349 | 0.0 | 0.0 | 0.00 | 0.00 | 0.00 | 93 | 1015.1 |
| 20260831135238 | 9 | 349 | 0.0 | 0.0 | 0.00 | 0.00 | 0.00 | 93 | 1015.0 |
| 20260831134728 | 9 | 349 | 0.0 | 0.0 | 0.00 | 0.00 | 0.00 | 93 | 1015.0 |
| 20260831134234 | 9 | 349 | 0.0 | 0.0 | 0.00 | 0.00 | 0.00 | 93 | 1015.0 |
| 20260831133722 | 9 | 349 | 0.0 | 0.0 | 0.00 | 0.00 | 0.00 | 92 | 1014.9 |
| 20260831133228 | 9 | 349 | 0.0 | 0.0 | 0.00 | 0.00 | 0.00 | 92 | 1014.9 |
| 20260831132735 | 9 | 349 | 0.0 | 0.0 | 0.00 | 0.00 | 0.00 | 92 | 1014.9 |
| 20260831132306 | 9 | 349 | 0.0 | 0.0 | 0.00 | 0.00 | 0.00 | 92 | 1015.0 |
| 20260831131738 | 9 | 349 | 0.0 | 0.0 | 0.00 | 0.00 | 0.00 | 92 | 1014.9 |
| 20260831131225 | 9 | 349 | 0.0 | 0.0 | 0.00 | 0.00 | 0.00 | 92 | 1015.0 |
| 20260831130752 | 10 | 349 | 0.0 | 0.0 | 0.00 | 0.00 | 0.00 | 92 | 1015.0 |
| 20260831130307 | 10 | 349 | 0.0 | 0.0 | 0.00 | 0.00 | 0.00 | 92 | 1015.0 |
| 20260831130235 | 10 | 349 | 0.0 | 0.0 | 0.00 | 0.00 | 0.00 | 92 | 1015.0 |
| 20260831125722 | 10 | 349 | 0.0 | 0.0 | 0.00 | 0.00 | 0.00 | 93 | 1015.0 |
| 20260831125230 | 10 | 349 | 0.0 | 0.0 | 0.00 | 0.00 | 0.00 | 93 | 1015.0 |
| 20260831124736 | 10 | 349 | 0.0 | 0.0 | 0.00 | 0.00 | 0.00 | 93 | 1015.1 |
| 20260831124304 | 10 | 350 | 0.0 | 0.0 | 0.00 | 0.00 | 0.00 | 93 | 1015.0 |
| 20260831123800 | 10 | 349 | 0.0 | 0.0 | 0.00 | 0.00 | 0.00 | 93 | 1015.1 |
| 20260831123255 | 10 | 349 | 0.0 | 0.0 | 0.00 | 0.00 | 0.00 | 92 | 1015.0 |
| 20260831123223 | 10 | 349 | 0.0 | 0.0 | 0.00 | 0.00 | 0.00 | 92 | 1015.0 |
| 20260831122730 | 10 | 349 | 0.0 | 0.0 | 0.00 | 0.00 | 0.00 | 92 | 1015.1 |
| 20260831122222 | 10 | 349 | 0.0 | 0.0 | 0.00 | 0.00 | 0.00 | 92 | 1015.2 |
| 20260831121728 | 10 | 349 | 0.0 | 0.0 | 0.00 | 0.00 | 0.00 | 92 | 1015.1 |
| 20260831121235 | 10 | 349 | 0.0 | 0.0 | 0.00 | 0.00 | 0.00 | 92 | 1015.2 |
| 20260831120722 | 10 | 349 | 0.0 | 0.0 | 0.00 | 0.00 | 0.00 | 92 | 1015.3 |
| 20260831120309 | 10 | 349 | 0.0 | 0.0 | 0.00 | 0.00 | 0.00 | 92 | 1015.4 |
| 20260831120237 | 10 | 349 | 0.0 | 0.0 | 0.00 | 0.00 | 0.00 | 92 | 1015.4 |
| 20260831115725 | 10 | 349 | 0.0 | 0.0 | 0.00 | 0.00 | 0.00 | 92 | 1015.4 |
| 20260831115232 | 10 | 349 | 0.0 | 0.0 | 0.00 | 0.00 | 0.00 | 91 | 1015.5 |
| 20260831114738 | 10 | 349 | 0.0 | 0.0 | 0.00 | 0.00 | 0.00 | 92 | 1015.5 |
| 20260831114225 | 10 | 349 | 0.0 | 0.0 | 0.00 | 0.00 | 0.00 | 92 | 1015.5 |
| 20260831113732 | 10 | 349 | 0.0 | 0.0 | 0.00 | 0.00 | 0.00 | 92 | 1015.6 |
| 20260831113259 | 10 | 349 | 0.0 | 0.0 | 0.00 | 0.00 | 0.00 | 92 | 1015.6 |
| 20260831112735 | 10 | 349 | 0.0 | 0.0 | 0.00 | 0.00 | 0.00 | 91 | 1015.5 |
| 20260831112226 | 10 | 349 | 0.0 | 0.0 | 0.00 | 0.00 | 0.00 | 91 | 1015.8 |
| 20260831111752 | 10 | 349 | 0.0 | 0.0 | 0.00 | 0.00 | 0.00 | 92 | 1015.7 |
| 20260831111720 | 10 | 349 | 0.0 | 0.0 | 0.00 | 0.00 | 0.00 | 92 | 1015.7 |
| 20260831111227 | 10 | 349 | 0.0 | 0.0 | 0.00 | 0.00 | 0.00 | 92 | 1015.9 |
| 20260831110734 | 10 | 349 | 0.0 | 0.0 | 0.00 | 0.00 | 0.00 | 92 | 1015.8 |
| 20260831110221 | 10 | 349 | 0.0 | 0.0 | 0.00 | 0.00 | 0.00 | 92 | 1015.9 |
| 20260831105729 | 10 | 349 | 0.0 | 0.0 | 0.00 | 0.00 | 0.00 | 91 | 1015.9 |
| 20260831105231 | 10 | 349 | 0.0 | 0.0 | 0.00 | 0.00 | 0.00 | 91 | 1016.0 |
| 20260831104737 | 10 | 349 | 0.0 | 0.0 | 0.00 | 0.00 | 0.00 | 91 | 1015.9 |
| 20260831104224 | 10 | 349 | 0.0 | 0.0 | 0.00 | 0.00 | 0.00 | 91 | 1016.0 |
| 20260831103731 | 10 | 349 | 0.0 | 0.0 | 0.00 | 0.00 | 0.00 | 91 | 1016.1 |
| 20260831103222 | 10 | 349 | 0.0 | 0.0 | 0.00 | 0.00 | 0.00 | 91 | 1016.1 |
| 20260831102806 | 10 | 349 | 0.0 | 0.0 | 0.00 | 0.00 | 0.00 | 91 | 1016.2 |
| 20260831102227 | 10 | 349 | 0.0 | 0.0 | 0.00 | 0.00 | 0.00 | 92 | 1016.2 |
| 20260831101733 | 10 | 350 | 0.0 | 0.0 | 0.00 | 0.00 | 0.00 | 91 | 1016.1 |
| 20260831101220 | 10 | 349 | 0.0 | 0.0 | 0.00 | 0.00 | 0.00 | 91 | 1016.1 |
| 20260831100727 | 10 | 349 | 0.0 | 0.0 | 0.00 | 0.00 | 0.00 | 91 | 1016.1 |
| 20260831100234 | 10 | 349 | 0.0 | 0.0 | 0.00 | 0.00 | 0.00 | 91 | 1016.3 |
| 20260831095801 | 10 | 349 | 0.0 | 0.0 | 0.00 | 0.00 | 0.00 | 90 | 1016.2 |
| 20260831095729 | 10 | 349 | 0.0 | 0.0 | 0.00 | 0.00 | 0.00 | 90 | 1016.2 |
| 20260831095237 | 10 | 349 | 0.0 | 0.0 | 0.00 | 0.00 | 0.00 | 90 | 1016.2 |
| 20260831094803 | 10 | 349 | 0.0 | 0.0 | 0.00 | 0.00 | 0.00 | 90 | 1016.3 |
| 20260831094731 | 10 | 349 | 0.0 | 0.0 | 0.00 | 0.00 | 0.00 | 90 | 1016.3 |
| 20260831094238 | 10 | 349 | 0.0 | 0.0 | 0.00 | 0.00 | 0.00 | 90 | 1016.4 |
| 20260831093725 | 11 | 349 | 0.0 | 0.0 | 0.00 | 0.00 | 0.00 | 89 | 1016.4 |
| 20260831093253 | 11 | 349 | 0.0 | 0.0 | 0.00 | 0.00 | 0.00 | 89 | 1016.4 |
| 20260831092728 | 11 | 349 | 0.0 | 0.0 | 0.00 | 0.00 | 0.00 | 89 | 1016.5 |
| 20260831092256 | 11 | 349 | 0.0 | 0.0 | 0.00 | 0.00 | 0.00 | 89 | 1016.6 |
| 20260831092224 | 11 | 349 | 0.0 | 0.0 | 0.00 | 0.00 | 0.00 | 89 | 1016.6 |
| 20260831091730 | 11 | 349 | 0.0 | 0.0 | 0.00 | 0.00 | 0.00 | 89 | 1016.8 |
| 20260831091235 | 11 | 349 | 0.0 | 0.0 | 0.00 | 0.00 | 0.00 | 88 | 1016.6 |
| 20260831090722 | 11 | 349 | 0.0 | 0.0 | 0.00 | 0.00 | 0.00 | 88 | 1016.7 |
| 20260831090229 | 11 | 349 | 0.0 | 0.0 | 0.00 | 0.00 | 0.00 | 88 | 1016.7 |
| 20260831085736 | 11 | 349 | 0.0 | 0.0 | 0.00 | 0.00 | 0.00 | 88 | 1016.8 |
| 20260831085224 | 11 | 350 | 0.0 | 0.0 | 0.00 | 0.00 | 0.00 | 89 | 1016.7 |
| 20260831084730 | 11 | 349 | 0.0 | 0.0 | 0.00 | 0.00 | 0.00 | 88 | 1016.8 |
| 20260831084252 | 11 | 349 | 0.0 | 0.0 | 0.00 | 0.00 | 0.00 | 88 | 1016.8 |
| 20260831084220 | 11 | 349 | 0.0 | 0.0 | 0.00 | 0.00 | 0.00 | 88 | 1016.8 |
| 20260831083728 | 11 | 349 | 0.0 | 0.0 | 0.00 | 0.00 | 0.00 | 89 | 1016.9 |
| 20260831083255 | 11 | 349 | 0.0 | 0.0 | 0.00 | 0.00 | 0.00 | 88 | 1016.8 |
| 20260831082730 | 11 | 349 | 0.0 | 0.0 | 0.00 | 0.00 | 0.00 | 88 | 1017.0 |
| 20260831082257 | 11 | 349 | 0.0 | 0.0 | 0.00 | 0.00 | 0.00 | 87 | 1016.9 |
| 20260831082225 | 11 | 349 | 0.0 | 0.0 | 0.00 | 0.00 | 0.00 | 87 | 1016.9 |
| 20260831081731 | 11 | 349 | 0.0 | 0.0 | 0.00 | 0.00 | 0.00 | 87 | 1017.0 |
| 20260831081258 | 11 | 349 | 0.0 | 0.0 | 0.00 | 0.00 | 0.00 | 87 | 1017.0 |
| 20260831080733 | 11 | 349 | 0.0 | 0.0 | 0.00 | 0.00 | 0.00 | 87 | 1017.1 |
| 20260831080240 | 12 | 349 | 0.0 | 0.0 | 0.00 | 0.00 | 0.00 | 86 | 1017.1 |
| 20260831075725 | 12 | 349 | 0.0 | 0.0 | 0.00 | 0.00 | 0.00 | 86 | 1017.3 |
| 20260831075233 | 12 | 349 | 0.0 | 0.0 | 0.00 | 0.00 | 0.00 | 86 | 1017.2 |
| 20260831074739 | 12 | 349 | 0.0 | 0.0 | 0.00 | 0.00 | 0.00 | 86 | 1017.3 |
| 20260831074226 | 12 | 349 | 0.0 | 0.0 | 0.00 | 0.00 | 0.00 | 86 | 1017.4 |
| 20260831073753 | 12 | 349 | 0.0 | 0.0 | 0.00 | 0.00 | 0.00 | 85 | 1017.4 |
| 20260831073721 | 12 | 349 | 0.0 | 0.0 | 0.00 | 0.00 | 0.00 | 85 | 1017.4 |
| 20260831073228 | 12 | 349 | 0.0 | 0.0 | 0.00 | 0.00 | 0.00 | 85 | 1017.4 |
| 20260831072735 | 12 | 349 | 0.0 | 0.0 | 0.00 | 0.00 | 0.00 | 85 | 1017.3 |
| 20260831072306 | 12 | 326 | 0.0 | 0.0 | 0.00 | 0.00 | 0.00 | 85 | 1017.4 |
| 20260831071758 | 12 | 326 | 0.0 | 0.0 | 0.00 | 0.00 | 0.00 | 84 | 1017.5 |
| 20260831071726 | 12 | 326 | 0.0 | 0.0 | 0.00 | 0.00 | 0.00 | 84 | 1017.5 |
| 20260831071233 | 12 | 326 | 0.0 | 0.0 | 0.00 | 0.00 | 0.00 | 84 | 1017.5 |
| 20260831070800 | 12 | 326 | 0.0 | 0.0 | 0.00 | 0.00 | 0.00 | 82 | 1017.6 |
| 20260831070729 | 12 | 326 | 0.0 | 0.0 | 0.00 | 0.00 | 0.00 | 82 | 1017.6 |